Zurück zum Katalog

NOAA 16 DEB

AktivPO
NORAD 42371·DEBRIS·🇺🇸 United States

Gestartet Sep 21, 2000 von Vandenberg Space Force Base

Loading…

Nächste Überflüge (nächste 24 Stunden)

TLE

AlterndSource: Space-Track

Epoche: Sep 10, 2026, 01:20 UTC

1 42371U 00055RP  26253.05612086  .00008975  00000-0  17396-2 0  9990
2 42371  99.0695 194.7939 0027625 162.3595 197.8569 14.63284378554984

Verfolge NOAA 16 DEB in Echtzeit mit AllMySat

Download on the App Store